Manhattan, KS

6:34 AM CST on December 11, 2019 (GMT -0600)
Manhattan Regional

Weather History for KMHK - October, 2019

Change the Weather History Date:

Monday, October 21, 2019

  Actual Average Record
Temperature  
Mean Temperature 51 °F 53 °F  
Max Temperature 57 °F 66 °F 82 °F (1999)
Min Temperature 45 °F 40 °F 30 °F (1999)
Degree Days  
Heating Degree Days 14 12  
Month to date heating degree days 193 188  
Since 1 July heating degree days 194 258  
Cooling Degree Days 0 0  
Month to date cooling degree days 15 21  
Year to date cooling degree days 1610 1358  
Growing Degree Days 1 (Base 50)    
Moisture  
Dew Point 36 °F    
Average Humidity 58    
Maximum Humidity 74    
Minimum Humidity 47    
Precipitation  
Precipitation 0.00 in 0.07 in 0.15 in (2008)
Month to date precipitation 2.84 1.61  
Year to date precipitation 40.82 29.32  
Sea Level Pressure  
Sea Level Pressure 29.67 in    
Wind  
Wind Speed 10 mph ()    
Max Wind Speed 23 mph    
Max Gust Speed 38 mph    
Visibility 10.0 miles    
Events      
T = Trace of Precipitation, MM = Missing Value Source: Averaged Metar Reports

Daily Weather History Graph

Daily Weather History Graph

Search for Another Location

Airport or City:

Astronomy

Oct. 21, 2019 Rise Set
Actual Time 7:42 AM CDT 6:39 PM CDT
Civil Twilight 7:15 AM CDT 7:06 PM CDT
Nautical Twilight 6:43 AM CDT 7:38 PM CDT
Astronomical Twilight 6:12 AM CDT 8:08 PM CDT
Moon No Moon Rise 2:59 PM CDT (10/21)
Length of Visible Light 11h 51m
Length of Day
10h 57m
Waning Gibbous, 48% of the Moon is Illuminated
Oct 21
Waning Gibbous
Oct 27
New
Nov 4
First Quarter
Nov 12
Full
Nov 19
Last Quarter

Hourly Weather History & Observations

Time (CDT) Temp. Windchill Dew Point Humidity Pressure Visibility Wind Dir Wind Speed Gust Speed Precip Events Conditions
12:52 AM 48.0 °F - 39.9 °F 74% 29.57 in 10.0 mi SW 5.8 mph - N/A   Clear
1:52 AM 48.0 °F - 37.9 °F 68% 29.56 in 10.0 mi SW 4.6 mph - N/A   Clear
2:52 AM 50.0 °F - 37.0 °F 61% 29.54 in 10.0 mi WSW 12.7 mph - N/A   Clear
3:52 AM 48.0 °F - 37.0 °F 66% 29.54 in 10.0 mi West 10.4 mph - N/A   Clear
4:52 AM 46.9 °F - 37.0 °F 68% 29.56 in 10.0 mi West 10.4 mph 19.6 mph N/A   Clear
5:52 AM 46.0 °F 41.4 °F 35.1 °F 66% 29.57 in 10.0 mi West 9.2 mph 20.7 mph N/A   Clear
6:52 AM 46.0 °F 41.0 °F 36.0 °F 68% 29.56 in 10.0 mi West 10.4 mph 18.4 mph N/A   Clear
7:52 AM 46.9 °F - 36.0 °F 66% 29.55 in 10.0 mi West 9.2 mph 19.6 mph N/A   Clear
8:52 AM 50.0 °F - 36.0 °F 59% 29.57 in 10.0 mi WSW 11.5 mph 19.6 mph N/A   Mostly Cloudy
9:52 AM 52.0 °F - 37.0 °F 57% 29.56 in 10.0 mi WSW 16.1 mph 27.6 mph N/A   Mostly Cloudy
10:52 AM 54.0 °F - 36.0 °F 51% 29.57 in 10.0 mi West 20.7 mph 36.8 mph N/A   Overcast
11:52 AM 54.0 °F - 36.0 °F 51% 29.60 in 10.0 mi West 16.1 mph 29.9 mph N/A   Overcast
12:52 PM 55.0 °F - 36.0 °F 49% 29.63 in 10.0 mi West 18.4 mph 38.0 mph N/A   Overcast
1:52 PM 54.0 °F - 39.0 °F 57% 29.66 in 10.0 mi West 18.4 mph 29.9 mph N/A   Overcast
2:52 PM 55.9 °F - 37.9 °F 51% 29.65 in 10.0 mi West 15.0 mph 25.3 mph N/A   Overcast
3:52 PM 55.9 °F - 36.0 °F 47% 29.68 in 10.0 mi West 18.4 mph 29.9 mph N/A   Overcast
4:52 PM 55.0 °F - 36.0 °F 49% 29.72 in 10.0 mi West 13.8 mph 25.3 mph N/A   Overcast
5:52 PM 54.0 °F - 36.0 °F 51% 29.76 in 10.0 mi West 10.4 mph 21.9 mph N/A   Overcast
6:52 PM 53.1 °F - 36.0 °F 52% 29.80 in 10.0 mi WNW 8.1 mph 27.6 mph N/A   Overcast
7:52 PM 53.1 °F - 35.1 °F 50% 29.84 in 10.0 mi WNW 11.5 mph 29.9 mph N/A   Overcast
8:52 PM 50.0 °F - 36.0 °F 59% 29.88 in 10.0 mi WNW 8.1 mph - N/A   Partly Cloudy
9:52 PM 50.0 °F - 35.1 °F 57% 29.91 in 10.0 mi WNW 10.4 mph 25.3 mph N/A   Clear
10:52 PM 48.0 °F - 33.1 °F 56% 29.92 in 10.0 mi West 6.9 mph - N/A   Clear
11:52 PM 48.0 °F - 30.0 °F 50% 29.94 in 10.0 mi West 10.4 mph - N/A   Clear